Погода в Пушкине

Россия / Липецкая область     52°19′52″N   40°21′55″E
темп.,
°C
ветер,
м/с
пор.,
м/с
влажн.,
%
обл.,
%
осадки,
мм/ч
давл.,
гПа
погр.,
м
11 мая, вт
вт1100:00+9ссв101893100 0.1 1016472
03:00+9ссв9209389 0.1 1016510
06:00+11св81791100 0.0 1016627
09:00+9вюв51293100 0.2 1019587
12:00+12вюв7106692 0.4 10211437
15:00+14вюв810547 0.4 10221849
18:00+12вюв7116916 0.0 1024976
21:00+9вюв4108014 0.1 1026442
12 мая, ср
ср1200:00+6вюв349240 0.0 102658
03:00+6св3692100 0.0 1026100
06:00+8св41086100 0.0 1024286
09:00+10всв5681100 0.5 1023585
12:00+9св4485100 2.4 1022444
15:00+12всв22685 2.6 1020849
18:00+13в47690 0.0 1020903
21:00+9в5128954 0.0 1020283
13 мая, чт
чт1300:00+11вюв51385100 0.0 1019416
03:00+9вюв3595100 0.1 102085
06:00+10в2492100 0.0 1019107
09:00+15всв2274100 0.0 1018405
12:00+18всв216192 0.0 10171231
15:00+20в3355100 0.0 10171435
18:00+18в45745 0.1 1017537
21:00+13в34920 0.1 101864
14 мая, пт
пт1400:00+13в349273 0.0 101747
03:00+12в3594100 0.0 101888
06:00+14в499331 0.0 1018216
09:00+20вюв6973100 0.0 1017567
12:00+24юв69608 0.0 10161206
15:00+25юв695957 0.0 10151626
18:00+24юв5106929 0.0 1014578
21:00+18юв498882 0.0 1014158
15 мая, сб
сб1500:00+17юв4108954 0.0 1013149
03:00+15юв48915 0.0 1012143
06:00+15юв5127794 0.0 1012277
09:00+17ююв61074100 0.1 1012380
12:00+21ю81168100 0.0 1012849
15:00+24ююв67613 0.0 10111264
18:00+21ююв4877100 0.6 1011211
21:00+18ююз3686100 2.6 1010104